$B4QB,G/7nF|(B,2013$BG/(B10$B7n(B17$BF|(B,,,
$B4QB,<T(B,$BJ!EDCN@$(B,,,
$B4QB,COE@(B,$BM}3XItEoA0(B,"34""41' 17.85","133""55'12.14",
$B29EY7WHV9f(B,A011,-1,$B!JIw8~$OA4$F5U!K(B,
$B;~9o(B,$B5$29(B,$BIw8~(B,$BIwB.(B,$BHw9M(B
15:00:00,21.1,$BKL(B,1,
15:01:00,21.1,$BKL(B,1,
15:02:00,21.1,$BKL(B,1,
15:03:00,21.1,$BKL@>(B,3,
15:04:00,21.1,$BKLEl(B,1,
15:05:00,20.9,$BKLEl(B,1,
15:06:00,20.8,$BKLEl(B,0.1,
15:07:00,21,$BFn(B,1,
15:08:00,20.9,$BKLEl(B,3,
15:09:00,20.9,$BKLEl(B,1,
15:10:00,21,$BFnEl(B,0.3,
15:11:00,21,$BFnEl(B,3,
15:12:00,20.7,$BFnEl(B,3,
15:13:00,20.1,$BFn(B,3,
15:14:00,19.9,$BFn(B,3,
15:15:00,19.7,$BFnEl(B,1,
15:16:00,19.5,$BFnEl(B,3,
15:17:00,20.1,$BKLEl(B,0.4,
15:18:00,20.8,$BFnEl(B,0.3,
15:19:00,20.2,$BFn@>(B,3,
15:20:00,19.5,$BFn(B,1,$B5$$N1F$,?-$S$F$-$?(B
15:21:00,19.3,$BFnEl(B,0.3,
15:22:00,19.4,$B@>(B,0.3,
15:23:00,19.5,$BFn@>(B,3,
15:24:00,19.7,$BFn(B,3,
15:25:00,19.8,$B@>(B,0.1,
15:26:00,20,$BFn@>(B,0.3,
15:27:00,19.8,$BFn@>(B,1,
15:28:00,19.3,$BFn@>(B,1,$B1@$,=P$FMh$?(B
15:29:00,19.1,$BKL(B,3,
15:30:00,19.1,$BFnEl(B,1,
15:31:00,19.2,$BEl(B,1,
15:32:00,19,$BFn@>(B,3,
15:33:00,18.9,$BKLEl(B,0.3,
15:34:00,18.8,$BKL@>(B,0.1,
15:35:00,19,$BFnEl(B,0.3,
15:36:00,18.8,$BFnEl(B,1,
15:37:00,18.8,$BKLEl(B,0.3,
15:38:00,18.8,$BKLEl(B,0.3,
15:39:00,18.8,$BFnEl(B,3,
15:40:00,18.8,$BFn(B,1,
15:41:00,19,$BKLEl(B,0.1,
15:42:00,18.8,$BFnEl(B,3,
15:43:00,18.5,$BEl(B,1,
15:44:00,18.6,$BEl(B,1,
15:45:00,18.7,$BFnEl(B,0.1,
15:46:00,18.7,$BFnEl(B,3,
15:47:00,18.5,$BFnEl(B,3,
15:48:00,18.6,$BEl(B,1,
15:49:00,18.7,$BEl(B,0.3,
15:50:00,18.7,$BKLEl(B,1,
15:51:00,18.5,$BEl(B,1,
15:52:00,18.5,$BKL(B,1,
15:53:00,18.5,$BFn(B,0.3,
15:54:00,18.3,$BKL(B,1,
15:55:00,18.2,$BKLEl(B,1,
15:56:00,18,$BKLEl(B,0.3,
15:57:00,18.1,$BFn(B,0.1,
15:58:00,18.1,$BFn(B,0.3,
15:59:00,18,$BFnEl(B,0.3,
16:00:00,180,$BFn(B,0.3,
16:01:00,18,$BFnEl(B,0.3,
16:02:00,18,$BEl(B,0.3,
16:03:00,18,$BFn@>(B,0.3,
16:04:00,18,$BKLEl(B,0.3,
16:05:00,17.9,$BFnEl(B,0.3,
16:06:00,17.9,$BFnEl(B,3,
16:07:00,17.9,$BKLEl(B,0.1,
16:08:00,17.8,$BEl(B,0.1,
16:09:00,17.8,$BKLEl(B,0.3,
16:10:00,17.8,$BFnEl(B,3,
16:11:00,17.7,$BKLEl(B,1,
16:12:00,17.7,$BKL@>(B,1,
16:13:00,17.7,$BKLEl(B,1,
16:14:00,17.7,$BKL(B,0.1,
16:15:00,17.7,$BKLEl(B,0.1,
16:16:00,17.7,$BEl(B,3,
16:17:00,17.7,$BEl(B,3,
16:18:00,17.6,$BFnEl(B,1,
16:19:00,17.6,$BFnEl(B,1,
16:20:00,17.6,$BEl(B,0.3,
16:21:00,17.5,$BEl(B,1,
16:22:00,17.5,$BFnEl(B,3,
16:23:00,17.5,$BKLEl(B,0.1,
16:24:00,17.4,$BKL@>(B,3,
16:25:00,17.4,$BFnEl(B,1,
16:26:00,17.3,$BFnEl(B,0.1,
16:27:00,17.4,$BKLEl(B,0.3,
16:28:00,17.2,$BKL(B,0.3,
16:29:00,17.2,$BKLEl(B,0.3,
16:30:00,17.2,$BKLEl(B,0.3,
16:31:00,17.2,$BKLEl(B,0.1,
16:32:00,17.1,$BKLEl(B,0.1,
16:33:00,17.1,$BKL(B,1,
16:34:00,17.1,$BKLEl(B,0.1,
16:35:00,17.1,$BEl(B,0.1,
16:36:00,17.1,$BKL(B,0.3,
16:37:00,17.1,$BKLEl(B,0.1,
16:38:00,17,$BKLEl(B,1,
16:39:00,17,$BKLEl(B,1,
16:40:00,17,$BKLEl(B,1,
16:41:00,17,$BKL(B,1,
16:42:00,17,$BFnEl(B,1,
16:43:00,17,$BKLEl(B,0.1,
16:44:00,17,$BKL@>(B,0.3,
16:45:00,17,$BFnEl(B,3,
16:46:00,17,$BFnEl(B,0.3,
16:47:00,17,$BEl(B,0.1,
16:48:00,16.9,$BKLEl(B,0.3,
16:49:00,16.9,$BKLEl(B,0.3,
16:50:00,16.9,$BKLEl(B,1,
16:51:00,16.9,$BFnEl(B,3,
16:52:00,16.9,$BEl(B,0.3,
16:53:00,16.9,$BEl(B,0.3,
16:54:00,16.9,$BKLEl(B,0.3,
16:55:00,16.9,$BKLEl(B,3,
16:56:00,16.8,$BFnEl(B,1,
16:57:00,16.8,$BFnEl(B,0.3,
16:58:00,16.8,$BEl(B,1,
16:59:00,16.8,$BEl(B,1,
17:00:00,16.8,$BEl(B,0.1,